Regional Weather Roundup
Issued by NWS

Home | Current Version | Previous Version | Graphics & Text | Print | Product List | Glossary On
Versions: 1 2 3 4 5 6 7 8 9 10 11 12 13 14 15 16 17 18 19 20 21 22 23 24 25 26 27 28 29 30 31 32 33 34 35 36 37 38 39 40 41 42 43 44 45 46 47 48 49 50
000
ASUS43 KMKX 050559
RWRWI

WISCONSIN REGIONAL WEATHER ROUNDUP
NATIONAL WEATHER SERVICE MILWAUKEE/SULLIVAN WI
1200 AM CST THU MAR 05 2015

NOTE: "FAIR" INDICATES FEW OR NO CLOUDS BELOW 12,000 FEET WITH NO
SIGNIFICANT WEATHER AND/OR OBSTRUCTIONS TO VISIBILITY.

WIZ001-002-006>008-014>016-023>028-050700-
NORTHWEST WISCONSIN

CITY           SKY/WX    TMP DP  RH WIND       PRES   REMARKS
SUPERIOR ARPT  CLEAR     -5 -15  62 W6        30.41R WCI -17
ASHLAND        CLEAR     -6 -16  61 W8        30.37R WCI -21
6HR MIN TEMP:  -8; 6HR MAX TEMP:   1;

HAYWARD        CLEAR    -17 -23  73 CALM      30.34F
6HR MIN TEMP: -17; 6HR MAX TEMP:   3;

SIREN          CLEAR    -14 -19  75 CALM      30.40F
CUMBERLAND     CLEAR     -8 -18  59 W8        30.35S WCI -23
RICE LAKE      CLEAR    -11 -19  68 CALM      30.37F
6HR MIN TEMP: -11; 6HR MAX TEMP:   5;

CHETEK         CLEAR     -9 -15  76 CALM      30.37S
LADYSMITH      CLEAR     -8 -14  74 W3        30.34S
6HR MIN TEMP: -11; 6HR MAX TEMP:   5;

EAU CLAIRE     CLEAR     -2 -14  56 NW9       30.37F WCI -18
6HR MIN TEMP:  -3; 6HR MAX TEMP:   7;

MENOMONIE      CLEAR     -1 -12  59 W5        30.39F WCI -11
NEW RICHMOND   CLEAR     -6 -15  65 NW7       30.40S WCI -20
OSCEOLA        CLEAR     -5 -14  64 W3        30.45S
$$

WIZ003>005-009-010-017-018-050700-
NORTH CENTRAL WISCONSIN

CITY           SKY/WX    TMP DP  RH WIND       PRES   REMARKS
MANITOWISH WTR PTCLDY    -9 -18  67 W6        30.24F WCI -23
ARBOR VITAE    CLEAR     -6 -15  66 CALM      30.25S
WOODRUFF       CLEAR     -6 -15  66 CALM      30.25S
RHINELANDER    CLEAR    -11 -19  68 W7        30.24S WCI -26
6HR MIN TEMP: -13; 6HR MAX TEMP:   2;

EAGLE RIVER    CLEAR     -8 -17  65 W7        30.23S WCI -23
LAND O LAKES   LGT SNOW  -8 -13  75 W5        30.23S WCI -19
PHILLIPS       CLEAR    -16 -21  80 CALM      30.27F
6HR MIN TEMP: -16; 6HR MAX TEMP:   2;

TOMAHAWK       CLEAR    -13 -18  79 CALM      30.28S
MEDFORD        CLEAR     -9 -16  69 NW3       30.27F
MERRILL        CLEAR     -6 -13  69 NW3       30.29S
$$

WIZ029-030-035-036-043>047-050700-
CENTRAL WISCONSIN

CITY           SKY/WX    TMP DP  RH WIND       PRES   REMARKS
WAUSAU         CLEAR     -3 -13  62 NW5       30.29S WCI -13
6HR MIN TEMP:  -4; 6HR MAX TEMP:   6;

MOSINEE        CLEAR     -4 -13  65 NW5       30.31S WCI -15
MARSHFIELD     CLEAR     -8 -17  64 NW7       30.30F WCI -23
6HR MIN TEMP:  -8; 6HR MAX TEMP:   6;

STEVENS POINT  CLEAR     -1 -13  56 CALM      30.32S
WAUPACA        CLEAR      5 -11  48 NW5       30.35S WCI  -4
WAUTOMA        NOT AVBL
WISC RAPIDS    CLEAR      0 -13  54 NW6       30.34F WCI -12
6HR MIN TEMP:   0; 6HR MAX TEMP:   9;

CAMP DOUGLAS   NOT AVBL
$$

WIZ011>013-019>022-031-037>040-048>050-050700-
NORTHEAST WISCONSIN

CITY           SKY/WX    TMP DP  RH WIND       PRES   REMARKS
ANTIGO         CLEAR     -6 -14  68 NW5       30.26S WCI -17
SHAWANO        CLEAR      2 -11  53 NW3       30.34F
OCONTO         CLEAR      1 -11  55 CALM      30.35S
STURGEON BAY   CLEAR      1 -13  51 NW9       30.34R WCI -14
6HR MIN TEMP:   1; 6HR MAX TEMP:  10;

GREEN BAY      CLEAR     -1 -11  62 NW3       30.35R
6HR MIN TEMP:  -1; 6HR MAX TEMP:  10;

MANITOWOC      NOT AVBL
APPLETON       CLEAR      3 -13  47 NW6       30.33R WCI  -8
CLINTONVILLE   CLEAR      1  -9  60 CALM      30.34S
OSHKOSH        CLEAR      4 -10  52 NW5       30.34S WCI  -5
6HR MIN TEMP:   4; 6HR MAX TEMP:  11;

$$

WIZ032>034-041-042-053>061-050700-
SOUTHWEST WISCONSIN

CITY           SKY/WX    TMP DP  RH WIND       PRES   REMARKS
LA CROSSE      CLEAR      3  -7  63 NW8       30.41R WCI -10
6HR MIN TEMP:   3; 6HR MAX TEMP:  12;

SPARTA         CLEAR      3  -9  56 NW5       30.38F WCI  -6
VIROQUA        CLEAR      1  -8  67 W5        30.34R WCI  -9
BOSCOBEL       CLEAR      4  -6  63 CALM      30.43R
6HR MIN TEMP:   4; 6HR MAX TEMP:  14;

PRAIRIE DU CHI CLEAR      4  -8  58 NW7       30.43R WCI  -8
PLATTEVILLE    PTCLDY     2  -4  75 W8        30.38R WCI -11
$$

WIZ056-057-062-063-064-067-068-050700-
SOUTH CENTRAL WISCONSIN

CITY           SKY/WX    TMP DP  RH WIND       PRES   REMARKS
REEDSBURG      CLEAR      5  -7  59 N3        30.37R
BARABOO/DELLS  CLEAR      5 -10  51 CALM      30.36R
LONE ROCK      NOT AVBL
MINERAL POINT  CLEAR      5  -4  66 W6        30.35R WCI  -6
MADISON        CLEAR      4  -6  63 NW3       30.37R
6HR MIN TEMP:   4; 6HR MAX TEMP:  14;

MIDDLETON      CLEAR      7  -6  56 W5        30.36S WCI  -2
WATERTOWN      CLEAR      6  -6  57 NW5       30.36R WCI  -2
MONROE         CLEAR      7   0  72 W10       30.34R WCI  -8
JANESVILLE     CLEAR      5  -6  61 W5        30.35F WCI  -4
$$

WIZ051-052-058>065-066-070>072-050700-
SOUTHEAST WISCONSIN

CITY           SKY/WX    TMP DP  RH WIND       PRES   REMARKS
MILWAUKEE      FAIR       9  -9  44 NW8       30.35S WCI  -3
6HR MIN TEMP:   9; 6HR MAX TEMP:  17;

WAUKESHA       CLEAR      5  -9  51 NW7       30.35S WCI  -7
MILWAUKEE/TIMM CLEAR      9  -9  43 NW5       30.36S WCI   0
RACINE         CLEAR      8  -8  48 NW7       30.37R WCI  -3
6HR MIN TEMP:   8; 6HR MAX TEMP:  16;

BURLINGTON     CLEAR     -1 -11  62 NW7       30.34S WCI -15
KENOSHA        CLEAR      3  -9  57 NW3       30.35R
6HR MIN TEMP:   1; 6HR MAX TEMP:  15;

FOND DU LAC    CLEAR      4 -10  52 W5        30.35R WCI  -5
6HR MIN TEMP:   3; 6HR MAX TEMP:  12;

SHEBOYGAN      FAIR       5 -10  50 NW6       30.35R WCI  -6
6HR MIN TEMP:   5; 6HR MAX TEMP:  12;

WEST BEND      CLEAR      5  -9  51 NW5       30.34R WCI  -4
JUNEAU         CLEAR      4  -8  56 NW3       30.36S
$$

LSZ147-162-050700-
LAKE SUPERIOR

STATION/POSITION TIME  TEMP    WIND        PRES    WAVE
                       AIR SEA DIR/SP/G            HT/PER
                 (UTC) (F)     (DEG/KT/KT) (MB)    (FT/S)
DEVILS ISLAND    0500    5     350/ 10/ 12 1029.4R
PORT WING        0500    4     300/ 11/ 14 1028.4
SAXON HARBOR     0400    1     220/  5/  7 1026.8R
$$

LMZ867-665-643>646-050700-
LAKE MICHIGAN

STATION/POSITION TIME  TEMP    WIND        PRES    WAVE
                       AIR SEA DIR/SP/G            HT/PER
                 (UTC) (F)     (DEG/KT/KT) (MB)    (FT/S)
NORTHPORT PIER   0512    7     300/ 13/ 20 1027.1R
KEWAUNEE LAKESHO 0500    4     310/  4/  6 1026.5R
SHEBOYGAN LAKESH 0500    9     310/ 11/ 12 1029.1R
PORT WASHINGTON  0540    8     300/  4/  8 1028.8R
MILWAUKEE LAKESH 0500   11     330/  5/  7   N/A
KENOSHA   LAKESH 0500   10     300/  8/ 10 1027.4S
$$

TC  - TEMPERATURE IN CELSIUS
VSB - VISIBILITY IN STATUTE MILES
WCI - WIND CHILL INDEX
HX  - HEAT INDEX




USA.gov is the U.S. government's official web portal to all federal, state and local government web resources and services.